This demonstration page uses our WeatherBlox Daily Observations layout. Learn more.

Left ArrowRight Arrow

Hourly Observations for March 31, 2022

Temp ( °F °C ) Dew Point ( °F °C ) Humidity (%) Winds ( mph kmh ) Pressure ( in mb ) Visibility ( mi km ) Precip ( " mm )
12:53 am 00:53 Clear 58 14.4 29 -1.7 33 33 W 8 13 29.68 1005 10 16 0.00 0.00
1:53 am 01:53 Clear 55 12.8 29 -1.7 37 37 NNW 7 11 29.70 1006 10 16 0.00 0.00
2:53 am 02:53 Clear 53 11.7 29 -1.7 40 40 W 5 7 29.70 1006 10 16 0.00 0.00
3:53 am 03:53 Clear 51 10.6 32 0 48 48 NNW 12 19 29.73 1007 10 16 0.00 0.00
4:53 am 04:53 Clear 48 8.9 38 3.3 68 68 N 18 30 29.78 1009 10 16 0.00 0.00
5:53 am 05:53 Clear 42 5.6 34 1.1 73 73 N 20 31 29.84 1011 10 16 0.00 0.00
6:53 am 06:53 Clear 41 5 33 0.6 73 73 N 17 28 29.86 1011 10 16 0.00 0.00
7:53 am 07:53 Sunny 39 3.9 33 0.6 79 79 NW 7 11 29.92 1013 10 16 0.00 0.00
8:53 am 08:53 Sunny 42 5.6 33 0.6 71 71 NW 10 17 29.93 1014 10 16 0.00 0.00
9:53 am 09:53 Sunny 45 7.2 34 1.1 66 66 NW 7 11 29.94 1014 10 16 0.00 0.00
10:53 am 10:53 Sunny 50 10 34 1.1 54 54 W 7 11 29.94 1014 10 16 0.00 0.00
11:53 am 11:53 Sunny 53 11.7 33 0.6 47 47 Calm 29.94 1014 10 16 0.00 0.00
12:53 pm 12:53 Sunny 57 13.9 31 -0.6 37 37 Calm 29.93 1014 10 16 0.00 0.00
1:53 pm 13:53 Sunny 62 16.7 28 -2.2 28 28 Calm 29.89 1012 10 16 0.00 0.00
2:53 pm 14:53 Sunny 63 17.2 25 -3.9 24 24 Calm 29.87 1012 10 16 0.00 0.00
3:53 pm 15:53 Sunny 66 18.9 24 -4.4 20 20 Calm 29.83 1010 10 16 0.00 0.00
4:53 pm 16:53 Sunny 68 20 22 -5.6 17 17 E 5 7 29.81 1010 10 16 0.00 0.00
5:53 pm 17:53 Sunny 68 20 21 -6.1 17 17 SE 6 9 29.80 1009 10 16 0.00 0.00
6:53 pm 18:53 Sunny 68 20 19 -7.2 15 15 E 6 9 29.79 1009 10 16 0.00 0.00
7:53 pm 19:53 Sunny 67 19.4 19 -7.2 16 16 NE 12 19 29.78 1008 10 16 0.00 0.00
8:53 pm 20:53 Clear 63 17.2 18 -7.8 17 17 ESE 7 11 29.78 1009 10 16 0.00 0.00
9:53 pm 21:53 Clear 63 17.2 18 -7.8 17 17 SE 12 19 29.80 1009 10 16 0.00 0.00
10:53 pm 22:53 Clear 60 15.6 18 -7.8 19 19 SE 10 17 29.81 1009 10 16 0.00 0.00
11:53 pm 23:53 Clear 58 14.4 17 -8.3 20 20 SE 9 15 29.81 1009 10 16 0.00 0.00

Powered by AerisWeather